[[{"header":{"parameterUnit":"m.s-1","parameterCategory":1,"la1":30.2991,"la2":30.254,"lo1":-89.0895,"lo2":-89.0444,"dy":0.0017,"dx":0.0017,"nx":28,"ny":28,"refTime":"2025-01-18T03:00:00:Z","depth":0,"parameterNumber":2,"parameterNumberName":"U-component_of_WINDS"},"data":[0,0,0,0,0,0,0,0,0,0,0,0,0,0,0,0,0,0,0,0,0,0,0,0,0,0,0,0,0,0,0,0,0,0,0,0,0,0,0,0,0,0,0,0,0,0,0,0,0,0,0,0,0,0,0,0,0,0,0.0183,0.0183,0,0.0173,0.0173,0.0173,0.0136,0.0135,0.0134,0.0133,0.0123,0.0123,0.0124,0,0,0,0,0,0,0,0,0,0,0,0,0,0.0171,0.0171,0.0183,0.0183,0.0183,0.0173,0.0173,0.0173,0.0136,0.0135,0.0134,0.0133,0.0122,0.0123,0.0124,0,0,0,0,0,0,0,0,0,0,0,0,0,0.017,0.0171,0.0183,0.0163,0.0161,0.0173,0.0173,0.0172,0.0136,0.0135,0.0134,0.0133,0.0122,0.0123,0.0124,0.0153,0,0,0.0126,0.0126,0,0,0,0,0,0,0,0,0.017,0.017,0.0166,0.0165,0.0163,0.0154,0.0164,0.0166,0.0137,0.0146,0.0133,0.0132,0.0134,0.0134,0.0135,0.0153,0.0152,0.0126,0.0126,0.0127,0.0127,0,0,0,0,0,0,0,0.017,0.017,0.0179,0.0166,0.0164,0.0155,0.0153,0.0164,0.0147,0.0145,0.0142,0.0141,0.0133,0.0134,0.0134,0.0152,0.0126,0.0127,0.0127,0.0127,0.0195,0.0197,0,0,0,0,0,0,0.0173,0.0171,0.0179,0.0179,0.0163,0.0156,0.0154,0.0158,0.0147,0.0144,0.0143,0.014,0.0133,0.0133,0.0134,0.0169,0.0127,0.0127,0.0128,0.0194,0.0196,0.0197,0,0,0,0,0,0,0.0173,0.0174,0.018,0.0174,0.0174,0.0158,0.0162,0.0159,0.016,0.0145,0.0142,0.0147,0.0132,0.0133,0.0149,0.0168,0.0128,0.0128,0.0192,0.0195,0.0196,0.0238,0,0,0,0,0,0,0.0172,0.0174,0.0185,0.0174,0.0174,0.0195,0.0163,0.0159,0.0161,0.0158,0.0148,0.0146,0.0131,0.0148,0.015,0.0168,0.0129,0.0191,0.0193,0.0196,0.0235,0.0242,0.0247,0,0,0,0,0,0.0172,0.0197,0.0186,0.0187,0.0188,0.0196,0.0196,0.018,0.0163,0.0174,0.0165,0.0146,0.0165,0.015,0.0152,0.017,0.0189,0.0193,0.0196,0.0233,0.024,0.0247,0,0,0,0,0,0,0.021,0.0195,0.0183,0.0205,0.0202,0.019,0.0204,0.0188,0.019,0.0187,0.0165,0.0164,0.0184,0.0178,0.0162,0.0199,0.0174,0.0178,0.0202,0.0209,0.0215,0.0216,0.013,0,0,0,0,0,0.022,0.0229,0.0215,0.0236,0.0236,0.022,0.0223,0.021,0.0207,0.0205,0.0197,0.0195,0.02,0.0204,0.0208,0.0234,0.0232,0.0248,0.0254,0.0259,0.0262,0.0277,0.0284,0.0207,0.0207,0.0207,0,0,0.0243,0.0236,0.0242,0.0244,0.024,0.025,0.0219,0.023,0.0237,0.0207,0.0223,0.0216,0.0212,0.0234,0.0243,0.023,0.0283,0.0262,0.0267,0.0267,0.0281,0.0288,0.0295,0.0209,0.0209,0.0209,0,0,0.0289,0.0284,0.0302,0.0299,0.0294,0.0284,0.0288,0.0279,0.0274,0.0289,0.0267,0.0275,0.0284,0.0283,0.0283,0.0329,0.0313,0.0331,0.0362,0.0377,0.0383,0.0388,0.0406,0.0413,0.0335,0.0335,0.0335,0,0.0317,0.0331,0.0312,0.0325,0.0327,0.0301,0.0318,0.0317,0.0314,0.0315,0.0301,0.0313,0.0308,0.033,0.0342,0.0342,0.0347,0.0333,0.0384,0.0389,0.0394,0.041,0.0417,0.0337,0.0337,0.0337,0.0336,0,0.0367,0.0376,0.0391,0.039,0.0393,0.0408,0.0392,0.0397,0.0385,0.0376,0.0392,0.0385,0.0388,0.0392,0.0379,0.0413,0.0405,0.0387,0.0362,0.0404,0.0419,0.0425,0.0341,0.034,0.0339,0.0338,0,0,0.0436,0.0425,0.0431,0.0431,0.0424,0.0431,0.0445,0.0449,0.0454,0.0453,0.0465,0.0474,0.0458,0.0459,0.0446,0.0458,0.0497,0.0439,0.0439,0.0452,0.0535,0.0549,0.0557,0.0486,0.0487,0.0488,0.0536,0,0.0481,0.0505,0.049,0.0517,0.0526,0.0502,0.0514,0.0512,0.0504,0.0511,0.0502,0.051,0.0487,0.0488,0.0499,0.049,0.0514,0.0486,0.0498,0.0498,0.0501,0.0565,0.058,0.0625,0.0542,0.0543,0.0543,0,0.0536,0.0539,0.0567,0.056,0.0563,0.0575,0.0578,0.0584,0.0581,0.0575,0.0576,0.056,0.0574,0.0548,0.0568,0.0549,0.0553,0.0549,0.0551,0.0552,0.0524,0.0569,0.0639,0.0647,0.0552,0.0552,0.0551,0,0.0586,0.0596,0.0615,0.0615,0.0607,0.0616,0.0613,0.0608,0.0612,0.0614,0.0616,0.062,0.0622,0.0625,0.061,0.0593,0.0632,0.0605,0.0628,0.0629,0.0638,0.0638,0.0711,0.0638,0.0638,0.0638,0.0638,0,0.0639,0.0657,0.0637,0.0649,0.0669,0.0651,0.0672,0.0666,0.0662,0.0673,0.0651,0.0661,0.0641,0.0649,0.0637,0.0656,0.0657,0.0653,0.065,0.0655,0.0656,0.0658,0.0655,0.064,0.064,0.0639,0.0639,0,0.0698,0.0685,0.0704,0.0695,0.0693,0.0709,0.0701,0.0712,0.0703,0.0716,0.0718,0.0704,0.0713,0.0698,0.0705,0.0697,0.0724,0.0715,0.0725,0.0723,0.0747,0.0746,0.0825,0.0835,0.0755,0.0756,0.0757,0,0.0732,0.0746,0.074,0.0745,0.0744,0.0753,0.0757,0.0739,0.0744,0.0743,0.0754,0.076,0.0765,0.078,0.077,0.0776,0.0768,0.0795,0.0768,0.0774,0.077,0.077,0.0772,0.0801,0.0802,0.0803,0.0803,0,0.0796,0.079,0.0796,0.0801,0.0806,0.0809,0.081,0.0816,0.0798,0.0805,0.0814,0.0817,0.0825,0.0832,0.0835,0.0832,0.0815,0.0812,0.0818,0.0824,0.083,0.0829,0.0742,0.081,0.081,0.0809,0.0809,0.0809,0.0845,0.0857,0.0854,0.0863,0.0862,0.0864,0.0874,0.0867,0.0874,0.0879,0.0868,0.0881,0.0878,0.088,0.0879,0.0888,0.0876,0.0884,0.0886,0.0889,0.0894,0.0828,0.0889,0.0888,0.0888,0.0888,0.0888,0,0.0909,0.0906,0.0914,0.0917,0.0924,0.0908,0.0909,0.0916,0.0927,0.0926,0.0931,0.0942,0.095,0.0941,0.0947,0.0956,0.0949,0.0958,0.0958,0.0958,0.0903,0.0899,0.0964,0.0964,0.0964,0.0964,0.0964,0.0964,0.0943,0.0962,0.0956,0.0975,0.0973,0.0985,0.0987,0.0989,0.0988,0.1002,0.1008,0.1003,0.0999,0.1005,0.1011,0.1008,0.1012,0.1025,0.102,0.0969,0.0962,0.0955,0.095,0.1026,0.1026,0.1074,0.1074,0.1074]},{"header":{"parameterUnit":"m.s-1","parameterCategory":1,"la1":30.2991,"la2":30.254,"lo1":-89.0895,"lo2":-89.0444,"dy":0.0017,"dx":0.0017,"nx":28,"ny":28,"refTime":"2025-01-18T03:00:00:Z","depth":0,"parameterNumber":3,"parameterNumberName":"V-component_of_WINDS"},"data":[0,0,0,0,0,0,0,0,0,0,0,0,0,0,0,0,0,0,0,0,0,0,0,0,0,0,0,0,0,0,0,0,0,0,0,0,0,0,0,0,0,0,0,0,0,0,0,0,0,0,0,0,0,0,0,0,0,0,3.4033,3.4035,0,3.4227,3.423,3.4232,3.4227,3.4225,3.4222,3.4219,3.4419,3.4427,3.4435,0,0,0,0,0,0,0,0,0,0,0,0,0,3.3657,3.3664,3.4033,3.4035,3.4038,3.4227,3.423,3.4232,3.4228,3.4224,3.4221,3.4218,3.4417,3.4426,3.4435,0,0,0,0,0,0,0,0,0,0,0,0,0,3.3833,3.3666,3.4032,3.4058,3.4062,3.4227,3.423,3.4233,3.4228,3.4224,3.422,3.4217,3.4414,3.4425,3.4437,3.4589,0,0,3.4472,3.4478,0,0,0,0,0,0,0,0,3.3823,3.3846,3.4052,3.4056,3.4062,3.4199,3.4171,3.4352,3.4229,3.4165,3.4219,3.4215,3.4349,3.4366,3.4411,3.4598,3.4606,3.4474,3.4481,3.4486,3.4489,0,0,0,0,0,0,0,3.381,3.3838,3.411,3.4055,3.4061,3.406,3.408,3.4205,3.4277,3.4171,3.4171,3.4194,3.4351,3.44,3.4416,3.4609,3.4473,3.4484,3.4491,3.4495,3.4931,3.4935,0,0,0,0,0,0,3.3793,3.3828,3.4104,3.4116,3.393,3.407,3.4093,3.4159,3.4276,3.429,3.4197,3.4193,3.4382,3.4402,3.4423,3.461,3.4486,3.4497,3.4503,3.4926,3.4932,3.4937,0,0,0,0,0,0,3.3785,3.3817,3.4096,3.3972,3.4007,3.4081,3.4155,3.4165,3.4214,3.4296,3.4309,3.4234,3.438,3.4407,3.4548,3.4617,3.4502,3.4512,3.4921,3.4928,3.4934,3.4983,0,0,0,0,0,0,3.3774,3.3815,3.3873,3.3973,3.4014,3.4217,3.4159,3.4172,3.4234,3.423,3.4334,3.4347,3.4379,3.453,3.4559,3.4631,3.4522,3.4915,3.4924,3.4932,3.4976,3.4991,3.5004,0,0,0,0,0,3.3761,3.3879,3.3876,3.3909,3.4089,3.4221,3.4244,3.4278,3.4239,3.4299,3.4352,3.4344,3.4604,3.4545,3.4577,3.4653,3.4911,3.4922,3.4932,3.497,3.4988,3.5004,0,0,0,0,0,0,3.3786,3.3893,3.3891,3.4045,3.4124,3.422,3.4296,3.4296,3.4388,3.4381,3.4419,3.4443,3.4584,3.4632,3.4565,3.4806,3.4752,3.477,3.477,3.4788,3.4802,3.4789,3.4531,0,0,0,0,0,3.3809,3.3907,3.3996,3.4123,3.4163,3.4223,3.4282,3.4301,3.4384,3.4418,3.4481,3.4562,3.4662,3.4728,3.4824,3.4982,3.5005,3.505,3.5064,3.5075,3.509,3.5178,3.52,3.497,3.497,3.497,0,0,3.3858,3.3929,3.3989,3.413,3.4194,3.4295,3.4251,3.436,3.4436,3.4435,3.4572,3.4621,3.4714,3.4864,3.4934,3.4909,3.5158,3.5088,3.5096,3.5106,3.5191,3.5213,3.5232,3.4977,3.4976,3.4975,0,0,3.4001,3.4064,3.4178,3.4242,3.4339,3.4377,3.4405,3.4501,3.4533,3.4672,3.4673,3.4763,3.4934,3.5001,3.5058,3.5224,3.5221,3.5255,3.5329,3.5414,3.5432,3.5449,3.551,3.5531,3.5269,3.5269,3.5269,0,3.4051,3.4204,3.4236,3.4347,3.4409,3.4411,3.4527,3.4588,3.4711,3.4754,3.4724,3.494,3.5002,3.5169,3.521,3.5254,3.5288,3.5244,3.5427,3.5444,3.5459,3.5518,3.5541,3.5273,3.5272,3.5272,3.5272,0,3.4261,3.4367,3.4448,3.4567,3.4638,3.475,3.48,3.4868,3.488,3.4922,3.5063,3.5138,3.525,3.529,3.5304,3.5459,3.5441,3.5419,3.5366,3.5484,3.554,3.5563,3.5278,3.5277,3.5275,3.5275,0,0,3.4427,3.4562,3.4591,3.4646,3.4752,3.4835,3.4947,3.5056,3.5115,3.5199,3.5295,3.5439,3.5419,3.5483,3.5503,3.5578,3.5707,3.5546,3.5549,3.5576,3.5885,3.5903,3.5929,3.5704,3.5709,3.5712,3.5878,0,3.4583,3.4783,3.4815,3.4991,3.509,3.5092,3.519,3.5266,3.5308,3.5398,3.5444,3.5546,3.5511,3.555,3.5624,3.5676,3.577,3.5664,3.5796,3.58,3.5775,3.5958,3.5978,3.6131,3.59,3.5904,3.5906,0,3.4792,3.4882,3.5068,3.5161,3.5203,3.5291,3.5394,3.548,3.5566,3.5591,3.5662,3.5673,3.579,3.573,3.5892,3.5819,3.5874,3.5908,3.5914,3.593,3.5862,3.5981,3.618,3.6204,3.5941,3.5938,3.5936,0,3.4897,3.5064,3.5197,3.5243,3.5355,3.5416,3.5466,3.5547,3.5611,3.5701,3.5743,3.5845,3.5902,3.598,3.6019,3.5971,3.6179,3.6122,3.6204,3.6204,3.6251,3.6248,3.6464,3.6282,3.6281,3.6281,3.628,0,3.5068,3.5183,3.5246,3.5328,3.5456,3.5491,3.5617,3.5664,3.5737,3.5829,3.5836,3.5922,3.5967,3.6059,3.609,3.622,3.6245,3.627,3.6277,3.6271,3.6268,3.6309,3.6301,3.6287,3.6286,3.6284,3.6283,0,3.5209,3.5255,3.5401,3.5494,3.552,3.5611,3.5691,3.5771,3.5811,3.5927,3.5956,3.602,3.613,3.6175,3.6309,3.633,3.648,3.6478,3.6452,3.6455,3.6536,3.6529,3.6789,3.6825,3.6616,3.6618,3.662,0,3.5317,3.5405,3.5507,3.5569,3.562,3.572,3.5785,3.5822,3.589,3.5994,3.6062,3.6171,3.6261,3.6435,3.6494,3.6596,3.6599,3.6682,3.6614,3.6605,3.6603,3.6598,3.6608,3.6696,3.6698,3.67,3.6701,0,3.5504,3.5523,3.5616,3.5719,3.5797,3.5879,3.5959,3.6009,3.6059,3.6134,3.6246,3.6316,3.6452,3.6561,3.6667,3.6718,3.6719,3.6721,3.6747,3.6743,3.6725,3.6738,3.6489,3.6716,3.6715,3.6713,3.6713,3.6712,3.5633,3.5712,3.5797,3.5901,3.5965,3.604,3.612,3.617,3.6264,3.6379,3.6395,3.6515,3.6598,3.6741,3.6795,3.689,3.6869,3.6904,3.6914,3.6923,3.693,3.6707,3.6909,3.6908,3.6908,3.6908,3.6908,0,3.5823,3.5877,3.5973,3.6085,3.6167,3.6159,3.6247,3.6317,3.6423,3.65,3.6588,3.6717,3.6822,3.6889,3.6995,3.7058,3.7061,3.7085,3.7082,3.7094,3.6941,3.691,3.7081,3.7081,3.7081,3.7081,3.7081,3.7081,3.5931,3.6065,3.6093,3.6259,3.6312,3.643,3.6482,3.6551,3.6613,3.6757,3.6844,3.6886,3.696,3.7072,3.7168,3.7185,3.7225,3.7251,3.7266,3.7123,3.7105,3.7088,3.7059,3.7258,3.7258,3.7412,3.7413,3.7414]}]]